Content
SEND FEEDBACK

Daily
Averages
Monthly
Summary
United States of America

BUENA VISTA, VIRGINIA


Home > North America > United States > Virginia
Elevation: 84 feet     Latitude: 37 44N     Longitude: 079 21W

WEATHER
 
SELECT A DAY
Number of Records: 215,902;   Date Range: 1/1/95 - 11/23/14
 
SHARE

PRINT THIS DATA

[ ← Previous Day ]
WEATHER ALMANAC - JULY 20, 2014
[ Next Day → ]
[ °C ]   °F
Weather ElementAverageHighLow
Temperature71.4 °F78.1 °F (10:54 am)64.9 °F (6:54 am)
Dewpoint62.5 °F66 °F (12:54 am)59 °F (5:54 pm)
Humidity74.2 %90 % (8:54 am)60 % (10:54 am)
Barometer30.12 in30.15 in (11:54 am)30.08 in (12:54 am)
Wind Speed2.8 mph6.9 mph (12:54 pm)
Weather ElementAverage
Visibility10 mi
Wind DirectionENE (56.3 °)

Weather ElementTotal
Precipitation---
Cooling Degree Days6.5 (Base 65)
Growing Degree Days21.5 (Base 50)
Averaged from 24 records on July 20, 2014
WEATHER CONDITIONS BREAKOUT
WIND DIRECTION BREAKOUT
WEATHER BY HOUR - JULY 20, 2014
[ °C ]   °F
Local TimeTemperatureDewpointHumidityBarometerVisibilityWind DirectionWind SpeedGust SpeedPrecipitationEventsConditions
12:54 AM68.0 °F64.0 °F87 %30.12 in10.0 miCalmOvercast
1:54 AM69.1 °F63.0 °F81 %30.11 in10.0 miNNE (30°)4.6 mphOvercast
2:54 AM66.9 °F62.1 °F84 %30.09 in10.0 miCalmOvercast
3:54 AM66.9 °F60.1 °F79 %30.09 in10.0 miENE (60°)4.6 mphOvercast
4:54 AM66.9 °F60.1 °F79 %30.09 in10.0 miNE (40°)3.5 mphOvercast
5:54 AM66.0 °F61.0 °F84 %30.10 in10.0 miNNE (30°)5.8 mphOvercast
6:54 AM64.9 °F60.1 °F84 %30.12 in10.0 miNNE (20°)4.6 mphOvercast
7:54 AM66.0 °F59.0 °F78 %30.14 in10.0 miNNE (30°)6.9 mphOvercast
8:54 AM66.9 °F60.1 °F79 %30.15 in10.0 miENE (70°)4.6 mphOvercast
9:54 AM69.1 °F61.0 °F75 %30.15 in10.0 miVariable3.5 mphOvercast
10:54 AM73.0 °F61.0 °F66 %30.14 in10.0 miCalmOvercast
11:54 AM75.0 °F60.1 °F60 %30.14 in10.0 miSSW (200°)4.6 mphOvercast
12:54 PM75.0 °F61.0 °F62 %30.13 in10.0 miSE (130°)4.6 mphOvercast
1:54 PM75.9 °F62.1 °F62 %30.12 in10.0 miCalmOvercast
2:54 PM75.9 °F62.1 °F62 %30.11 in10.0 miSSW (200°)4.6 mphOvercast
3:54 PM75.9 °F62.1 °F62 %30.10 in10.0 miSSE (150°)3.5 mphOvercast
4:54 PM78.1 °F63.0 °F60 %30.09 in10.0 miSSW (200°)4.6 mphOvercast
5:54 PM78.1 °F64.0 °F62 %30.08 in10.0 miENE (60°)3.5 mphOvercast
6:54 PM75.9 °F64.9 °F69 %30.10 in10.0 miCalmOvercast
7:54 PM75.0 °F64.9 °F71 %30.09 in10.0 miSE (130°)3.5 mphOvercast
8:54 PM73.0 °F66.0 °F79 %30.11 in10.0 miCalmOvercast
9:54 PM72.0 °F66.0 °F81 %30.12 in10.0 miCalmOvercast
10:54 PM71.1 °F66.0 °F84 %30.13 in10.0 miCalmOvercast
11:54 PM69.1 °F66.0 °F90 %30.14 in10.0 miCalmMostly Cloudy
Hourly data recorded from KLYH, located miles away from Buena Vista, Virginia







STORIES FROM OUR PARTNERS